| time (UTC) | temp F | wind direction | speed MPH | gust MPH | rain 1hr in | rain 24hr in | rain mn in | humidity % | barometer mb |
| 20260502164038 | 56 | 185 | 0.0 | 1.0 | 0.00 | 0.00 | 0.00 | 81 | 1012.0 |
| 20260502163538 | 56 | 0 | 0.0 | 3.0 | 0.00 | 0.00 | 0.00 | 83 | 1012.0 |
| 20260502163106 | 55 | 0 | 0.0 | 3.0 | 0.00 | 0.00 | 0.00 | 82 | 1012.2 |
| 20260502162536 | 55 | 185 | 0.0 | 2.0 | 0.00 | 0.00 | 0.00 | 82 | 1012.0 |
| 20260502162040 | 55 | 0 | 0.0 | 2.0 | 0.00 | 0.00 | 0.00 | 81 | 1012.1 |
| 20260502161618 | 56 | 0 | 0.0 | 3.0 | 0.00 | 0.00 | 0.00 | 81 | 1012.3 |
| 20260502161038 | 56 | 0 | 1.0 | 3.0 | 0.00 | 0.00 | 0.00 | 79 | 1012.2 |
| 20260502160535 | 56 | 111 | 0.0 | 2.0 | 0.00 | 0.00 | 0.00 | 81 | 1012.3 |
| 20260502152037 | 58 | 219 | 1.0 | 3.0 | 0.00 | 0.00 | 0.00 | 82 | 1012.6 |
| 20260502151555 | 57 | 235 | 1.0 | 3.0 | 0.00 | 0.00 | 0.00 | 84 | 1012.5 |
| 20260502151038 | 55 | 0 | 0.0 | 2.0 | 0.00 | 0.00 | 0.00 | 81 | 1012.5 |
| 20260502150535 | 56 | 235 | 0.0 | 2.0 | 0.00 | 0.00 | 0.00 | 80 | 1012.5 |
| 20260502130537 | 54 | 0 | 0.0 | 2.0 | 0.00 | 0.00 | 0.00 | 83 | 1012.9 |
| 20260502123535 | 53 | 0 | 1.0 | 4.0 | 0.00 | 0.00 | 0.00 | 84 | 1013.0 |
| 20260502123110 | 53 | 20 | 1.0 | 4.0 | 0.00 | 0.00 | 0.00 | 83 | 1012.9 |
| 20260502122537 | 53 | 0 | 0.0 | 4.0 | 0.00 | 0.00 | 0.00 | 84 | 1012.9 |
| 20260502122043 | 53 | 6 | 1.0 | 4.0 | 0.00 | 0.00 | 0.00 | 84 | 1012.8 |
| 20260502121556 | 53 | 3 | 0.0 | 3.0 | 0.00 | 0.00 | 0.00 | 85 | 1012.9 |
| 20260502121040 | 53 | 0 | 0.0 | 2.0 | 0.00 | 0.00 | 0.00 | 86 | 1013.0 |
| 20260502120540 | 52 | 0 | 0.0 | 2.0 | 0.00 | 0.00 | 0.00 | 87 | 1012.9 |
| 20260502120108 | 52 | 0 | 0.0 | 1.0 | 0.00 | 0.00 | 0.00 | 87 | 1012.8 |
| 20260502115539 | 51 | 0 | 0.0 | 1.0 | 0.00 | 0.00 | 0.00 | 89 | 1012.7 |
| 20260502115043 | 50 | 0 | 0.0 | 1.0 | 0.00 | 0.00 | 0.00 | 88 | 1012.7 |
| 20260502114548 | 50 | 0 | 0.0 | 1.0 | 0.00 | 0.00 | 0.00 | 89 | 1012.7 |
| 20260502114042 | 49 | 0 | 0.0 | 1.0 | 0.00 | 0.00 | 0.00 | 90 | 1012.7 |
| 20260502113538 | 49 | 0 | 0.0 | 0.0 | 0.00 | 0.00 | 0.00 | 90 | 1012.7 |
| 20260502113051 | 49 | 0 | 0.0 | 0.0 | 0.00 | 0.00 | 0.00 | 91 | 1012.6 |
| 20260502112538 | 49 | 0 | 0.0 | 2.0 | 0.00 | 0.00 | 0.00 | 92 | 1012.6 |
| 20260502112039 | 48 | 0 | 0.0 | 2.0 | 0.00 | 0.00 | 0.00 | 92 | 1012.6 |
| 20260502111548 | 48 | 0 | 0.0 | 2.0 | 0.00 | 0.00 | 0.00 | 93 | 1012.5 |
| 20260502111039 | 47 | 0 | 0.0 | 0.0 | 0.00 | 0.00 | 0.00 | 93 | 1012.5 |
| 20260502110539 | 46 | 0 | 0.0 | 0.0 | 0.00 | 0.00 | 0.00 | 93 | 1012.5 |
| 20260502110054 | 46 | 0 | 0.0 | 0.0 | 0.00 | 0.00 | 0.00 | 93 | 1012.7 |
| 20260502105539 | 46 | 0 | 0.0 | 0.0 | 0.00 | 0.00 | 0.00 | 93 | 1012.6 |
| 20260502105038 | 46 | 0 | 0.0 | 1.0 | 0.00 | 0.00 | 0.00 | 93 | 1012.6 |
| 20260502104552 | 45 | 0 | 0.0 | 1.0 | 0.00 | 0.00 | 0.00 | 93 | 1012.5 |
| 20260502104039 | 45 | 0 | 0.0 | 2.0 | 0.00 | 0.00 | 0.00 | 93 | 1012.3 |
| 20260502103535 | 44 | 0 | 0.0 | 2.0 | 0.00 | 0.00 | 0.00 | 93 | 1012.2 |
| 20260502103046 | 44 | 0 | 0.0 | 2.0 | 0.00 | 0.00 | 0.00 | 93 | 1012.2 |
| 20260502102538 | 43 | 0 | 0.0 | 2.0 | 0.00 | 0.00 | 0.00 | 93 | 1012.1 |
| 20260502102040 | 43 | 0 | 0.0 | 2.0 | 0.00 | 0.00 | 0.00 | 93 | 1012.1 |
| 20260502101547 | 43 | 201 | 0.0 | 2.0 | 0.00 | 0.00 | 0.00 | 93 | 1012.3 |
| 20260502101039 | 42 | 201 | 0.0 | 2.0 | 0.00 | 0.00 | 0.00 | 93 | 1012.2 |
| 20260502100539 | 42 | 0 | 0.0 | 2.0 | 0.00 | 0.00 | 0.00 | 93 | 1012.1 |
| 20260502091039 | 40 | 0 | 0.0 | 0.0 | 0.00 | 0.00 | 0.00 | 91 | 1012.3 |
| 20260502090539 | 40 | 0 | 0.0 | 2.0 | 0.00 | 0.00 | 0.00 | 91 | 1012.4 |
| 20260502071037 | 42 | 0 | 0.0 | 2.0 | 0.00 | 0.00 | 0.00 | 89 | 1012.0 |
| 20260502070538 | 42 | 201 | 1.0 | 2.0 | 0.00 | 0.00 | 0.00 | 89 | 1011.9 |
| 20260502070107 | 42 | 0 | 0.0 | 2.0 | 0.00 | 0.00 | 0.00 | 89 | 1012.0 |
| 20260502065538 | 42 | 201 | 0.0 | 2.0 | 0.00 | 0.00 | 0.00 | 89 | 1012.1 |
| 20260502065037 | 43 | 0 | 0.0 | 2.0 | 0.00 | 0.00 | 0.00 | 89 | 1012.0 |
| 20260502064553 | 43 | 201 | 0.0 | 2.0 | 0.00 | 0.00 | 0.00 | 89 | 1012.1 |
| 20260502064037 | 43 | 0 | 0.0 | 1.0 | 0.00 | 0.00 | 0.00 | 89 | 1012.1 |
| 20260502063539 | 43 | 0 | 0.0 | 2.0 | 0.00 | 0.00 | 0.00 | 88 | 1012.1 |
| 20260502063053 | 43 | 0 | 0.0 | 2.0 | 0.00 | 0.00 | 0.00 | 88 | 1012.2 |
| 20260502062538 | 43 | 201 | 0.0 | 2.0 | 0.00 | 0.00 | 0.00 | 88 | 1012.2 |
| 20260502062038 | 43 | 0 | 0.0 | 0.0 | 0.00 | 0.00 | 0.00 | 88 | 1012.2 |
| 20260502061547 | 43 | 0 | 0.0 | 1.0 | 0.00 | 0.00 | 0.00 | 88 | 1012.4 |
| 20260502061037 | 43 | 0 | 0.0 | 1.0 | 0.00 | 0.00 | 0.00 | 88 | 1012.2 |
| 20260502060539 | 43 | 0 | 0.0 | 0.0 | 0.00 | 0.00 | 0.00 | 87 | 1012.2 |
| 20260502060054 | 43 | 0 | 0.0 | 2.0 | 0.00 | 0.00 | 0.00 | 87 | 1012.3 |
| 20260502055538 | 44 | 0 | 0.0 | 2.0 | 0.00 | 0.00 | 0.00 | 87 | 1012.3 |
| 20260502055038 | 44 | 0 | 0.0 | 1.0 | 0.00 | 0.00 | 0.00 | 87 | 1012.3 |
| 20260502054548 | 44 | 0 | 0.0 | 2.0 | 0.00 | 0.00 | 0.00 | 87 | 1012.3 |
| 20260502054037 | 44 | 0 | 0.0 | 2.0 | 0.00 | 0.00 | 0.00 | 87 | 1012.5 |
| 20260502053537 | 44 | 0 | 0.0 | 2.0 | 0.00 | 0.00 | 0.00 | 87 | 1012.5 |
| 20260502053053 | 44 | 201 | 0.0 | 2.0 | 0.00 | 0.00 | 0.00 | 87 | 1012.6 |
| 20260502052537 | 44 | 0 | 0.0 | 2.0 | 0.00 | 0.00 | 0.00 | 87 | 1012.5 |
| 20260502052042 | 44 | 0 | 0.0 | 1.0 | 0.00 | 0.00 | 0.00 | 87 | 1012.6 |
| 20260502051602 | 44 | 0 | 0.0 | 1.0 | 0.00 | 0.00 | 0.00 | 87 | 1012.5 |
| 20260502051039 | 44 | 0 | 0.0 | 1.0 | 0.00 | 0.00 | 0.00 | 86 | 1012.6 |
| 20260502050539 | 44 | 0 | 0.0 | 1.0 | 0.00 | 0.00 | 0.00 | 86 | 1012.6 |
| 20260502050056 | 44 | 0 | 0.0 | 0.0 | 0.00 | 0.00 | 0.00 | 86 | 1012.4 |
| 20260502045541 | 44 | 0 | 0.0 | 2.0 | 0.00 | 0.00 | 0.00 | 86 | 1012.5 |
| 20260502045036 | 44 | 0 | 0.0 | 2.0 | 0.00 | 0.00 | 0.00 | 86 | 1012.5 |
| 20260502044607 | 44 | 0 | 0.0 | 2.0 | 0.00 | 0.00 | 0.00 | 86 | 1012.5 |
| 20260502044037 | 44 | 0 | 0.0 | 2.0 | 0.00 | 0.00 | 0.00 | 86 | 1012.5 |
| 20260502043541 | 45 | 0 | 0.0 | 0.0 | 0.00 | 0.00 | 0.00 | 86 | 1012.6 |
| 20260502043053 | 45 | 0 | 0.0 | 0.0 | 0.00 | 0.00 | 0.00 | 86 | 1012.6 |
| 20260502042538 | 45 | 0 | 0.0 | 0.0 | 0.00 | 0.00 | 0.00 | 86 | 1012.5 |
| 20260502042040 | 45 | 0 | 0.0 | 0.0 | 0.00 | 0.00 | 0.00 | 86 | 1012.5 |
| 20260502041552 | 45 | 0 | 0.0 | 0.0 | 0.00 | 0.00 | 0.00 | 86 | 1012.6 |
| 20260502041037 | 45 | 0 | 0.0 | 0.0 | 0.00 | 0.00 | 0.00 | 85 | 1012.6 |
| 20260502040537 | 45 | 0 | 0.0 | 0.0 | 0.00 | 0.00 | 0.00 | 85 | 1012.5 |
| 20260502035536 | 46 | 0 | 0.0 | 0.0 | 0.00 | 0.00 | 0.00 | 85 | 1012.7 |
| 20260502035036 | 46 | 0 | 0.0 | 1.0 | 0.00 | 0.00 | 0.00 | 85 | 1012.6 |
| 20260502034548 | 46 | 0 | 0.0 | 1.0 | 0.00 | 0.00 | 0.00 | 85 | 1012.6 |
| 20260502034039 | 46 | 0 | 0.0 | 1.0 | 0.00 | 0.00 | 0.00 | 84 | 1012.6 |
| 20260502033537 | 46 | 0 | 0.0 | 1.0 | 0.00 | 0.00 | 0.00 | 84 | 1012.6 |
| 20260502033051 | 46 | 0 | 0.0 | 2.0 | 0.00 | 0.00 | 0.00 | 85 | 1012.6 |
| 20260502032537 | 46 | 0 | 0.0 | 2.0 | 0.00 | 0.00 | 0.00 | 85 | 1012.6 |
| 20260502032038 | 46 | 0 | 0.0 | 0.0 | 0.00 | 0.00 | 0.00 | 86 | 1012.5 |
| 20260502031549 | 46 | 0 | 0.0 | 0.0 | 0.00 | 0.00 | 0.00 | 85 | 1012.4 |
| 20260502031041 | 45 | 0 | 0.0 | 1.0 | 0.00 | 0.00 | 0.00 | 86 | 1012.5 |
| 20260502030537 | 45 | 0 | 0.0 | 2.0 | 0.00 | 0.00 | 0.00 | 85 | 1012.4 |
| 20260502030051 | 45 | 0 | 0.0 | 2.0 | 0.00 | 0.00 | 0.00 | 85 | 1012.5 |
| 20260502025537 | 45 | 0 | 0.0 | 1.0 | 0.00 | 0.00 | 0.00 | 85 | 1012.3 |
| 20260502025038 | 45 | 0 | 0.0 | 2.0 | 0.00 | 0.00 | 0.00 | 84 | 1012.2 |
| 20260502024547 | 46 | 0 | 0.0 | 2.0 | 0.00 | 0.00 | 0.00 | 84 | 1012.1 |
| 20260502024040 | 46 | 0 | 0.0 | 4.0 | 0.00 | 0.00 | 0.00 | 84 | 1012.0 |
| 20260502023539 | 46 | 197 | 0.0 | 4.0 | 0.00 | 0.00 | 0.00 | 84 | 1012.0 |
| 20260502023048 | 46 | 0 | 0.0 | 0.0 | 0.00 | 0.00 | 0.00 | 84 | 1012.0 |
| 20260502022537 | 46 | 0 | 0.0 | 2.0 | 0.00 | 0.00 | 0.00 | 84 | 1012.0 |
| 20260502022039 | 46 | 0 | 0.0 | 2.0 | 0.00 | 0.00 | 0.00 | 84 | 1012.0 |
| 20260502021549 | 46 | 0 | 0.0 | 0.0 | 0.00 | 0.00 | 0.00 | 84 | 1012.1 |
| 20260502021039 | 46 | 0 | 0.0 | 0.0 | 0.00 | 0.00 | 0.00 | 84 | 1012.1 |
| 20260502020539 | 46 | 0 | 0.0 | 1.0 | 0.00 | 0.00 | 0.00 | 84 | 1012.1 |
| 20260502020049 | 46 | 0 | 0.0 | 2.0 | 0.00 | 0.00 | 0.00 | 84 | 1012.2 |
| 20260502015536 | 46 | 0 | 0.0 | 2.0 | 0.00 | 0.00 | 0.00 | 84 | 1012.3 |
| 20260502015038 | 46 | 0 | 0.0 | 2.0 | 0.00 | 0.00 | 0.00 | 84 | 1012.3 |
| 20260502014549 | 46 | 0 | 0.0 | 2.0 | 0.00 | 0.00 | 0.00 | 84 | 1012.2 |
| 20260502014040 | 46 | 0 | 0.0 | 1.0 | 0.00 | 0.00 | 0.00 | 84 | 1012.1 |
| 20260502013537 | 46 | 0 | 0.0 | 1.0 | 0.00 | 0.00 | 0.00 | 84 | 1012.1 |
| 20260502013048 | 46 | 0 | 0.0 | 1.0 | 0.00 | 0.00 | 0.00 | 84 | 1012.1 |
| 20260502012536 | 46 | 0 | 0.0 | 1.0 | 0.00 | 0.00 | 0.00 | 85 | 1012.0 |
| 20260502012039 | 46 | 0 | 0.0 | 1.0 | 0.00 | 0.00 | 0.00 | 84 | 1012.1 |
| 20260502011548 | 46 | 0 | 0.0 | 1.0 | 0.00 | 0.00 | 0.00 | 84 | 1012.0 |
| 20260502011036 | 46 | 0 | 0.0 | 1.0 | 0.00 | 0.00 | 0.00 | 84 | 1011.9 |
| 20260502010540 | 46 | 0 | 0.0 | 1.0 | 0.00 | 0.00 | 0.00 | 84 | 1011.9 |
| 20260502010054 | 46 | 0 | 0.0 | 1.0 | 0.00 | 0.00 | 0.00 | 84 | 1011.8 |
| 20260502005540 | 46 | 0 | 0.0 | 0.0 | 0.00 | 0.00 | 0.00 | 84 | 1011.8 |
| 20260502005043 | 46 | 0 | 0.0 | 0.0 | 0.00 | 0.00 | 0.00 | 84 | 1011.7 |
| 20260502004602 | 46 | 0 | 0.0 | 1.0 | 0.00 | 0.00 | 0.00 | 84 | 1011.5 |
| 20260502004042 | 47 | 0 | 0.0 | 2.0 | 0.00 | 0.00 | 0.00 | 84 | 1011.4 |
| 20260502003537 | 47 | 0 | 0.0 | 2.0 | 0.00 | 0.00 | 0.00 | 84 | 1011.3 |
| 20260502003050 | 47 | 0 | 0.0 | 2.0 | 0.00 | 0.00 | 0.00 | 83 | 1011.3 |
| 20260502002538 | 47 | 0 | 0.0 | 2.0 | 0.00 | 0.00 | 0.00 | 83 | 1011.4 |
| 20260502002036 | 47 | 0 | 0.0 | 2.0 | 0.00 | 0.00 | 0.00 | 82 | 1011.3 |
| 20260502001557 | 48 | 0 | 0.0 | 0.0 | 0.00 | 0.00 | 0.00 | 82 | 1011.1 |
| 20260502001037 | 48 | 0 | 0.0 | 0.0 | 0.00 | 0.00 | 0.00 | 81 | 1011.1 |
| 20260502000538 | 48 | 0 | 0.0 | 0.0 | 0.00 | 0.00 | 0.00 | 81 | 1011.0 |
| 20260502000058 | 49 | 0 | 0.0 | 0.0 | 0.00 | 0.00 | 0.00 | 80 | 1010.9 |
| 20260501235538 | 49 | 0 | 0.0 | 0.0 | 0.00 | 0.00 | 0.00 | 80 | 1010.8 |
| 20260501235043 | 49 | 0 | 0.0 | 0.0 | 0.00 | 0.00 | 0.00 | 79 | 1010.8 |
| 20260501234603 | 49 | 0 | 0.0 | 1.0 | 0.00 | 0.00 | 0.00 | 79 | 1010.7 |
| 20260501234039 | 50 | 0 | 0.0 | 1.0 | 0.00 | 0.00 | 0.00 | 78 | 1010.7 |
| 20260501233539 | 50 | 0 | 0.0 | 1.0 | 0.00 | 0.00 | 0.00 | 78 | 1010.7 |
| 20260501233050 | 50 | 0 | 0.0 | 1.0 | 0.00 | 0.00 | 0.00 | 78 | 1010.6 |
| 20260501232542 | 51 | 0 | 0.0 | 1.0 | 0.00 | 0.00 | 0.00 | 77 | 1010.4 |
| 20260501232038 | 51 | 0 | 0.0 | 1.0 | 0.00 | 0.00 | 0.00 | 77 | 1010.4 |
| 20260501231555 | 51 | 0 | 0.0 | 0.0 | 0.00 | 0.00 | 0.00 | 75 | 1010.2 |
| 20260501231039 | 52 | 0 | 0.0 | 0.0 | 0.00 | 0.00 | 0.00 | 75 | 1010.2 |
| 20260501230541 | 52 | 0 | 0.0 | 0.0 | 0.00 | 0.00 | 0.00 | 74 | 1010.1 |
| 20260501230056 | 53 | 0 | 0.0 | 2.0 | 0.00 | 0.00 | 0.00 | 74 | 1010.1 |
| 20260501225540 | 53 | 0 | 0.0 | 2.0 | 0.00 | 0.00 | 0.00 | 73 | 1010.2 |
| 20260501225039 | 53 | 358 | 0.0 | 2.0 | 0.00 | 0.00 | 0.00 | 71 | 1010.0 |
| 20260501224548 | 54 | 0 | 0.0 | 2.0 | 0.00 | 0.00 | 0.00 | 72 | 1010.0 |
| 20260501224040 | 54 | 358 | 0.0 | 2.0 | 0.00 | 0.00 | 0.00 | 72 | 1009.9 |
| 20260501223540 | 54 | 358 | 0.0 | 2.0 | 0.00 | 0.00 | 0.00 | 72 | 1009.9 |
| 20260501223048 | 55 | 0 | 0.0 | 2.0 | 0.00 | 0.00 | 0.00 | 70 | 1009.8 |
| 20260501222542 | 55 | 358 | 0.0 | 4.0 | 0.00 | 0.00 | 0.00 | 69 | 1009.8 |
| 20260501222040 | 56 | 358 | 1.0 | 4.0 | 0.00 | 0.00 | 0.00 | 67 | 1009.7 |
| 20260501221553 | 56 | 0 | 0.0 | 3.0 | 0.00 | 0.00 | 0.00 | 66 | 1009.7 |
| 20260501221039 | 57 | 9 | 1.0 | 3.0 | 0.00 | 0.00 | 0.00 | 65 | 1009.8 |
| 20260501220539 | 57 | 0 | 0.0 | 2.0 | 0.00 | 0.00 | 0.00 | 65 | 1009.7 |
| 20260501215539 | 57 | 15 | 1.0 | 3.0 | 0.00 | 0.00 | 0.00 | 63 | 1009.7 |
| 20260501215039 | 57 | 0 | 0.0 | 3.0 | 0.00 | 0.00 | 0.00 | 63 | 1009.7 |
| 20260501214554 | 57 | 347 | 0.0 | 2.0 | 0.00 | 0.00 | 0.00 | 63 | 1009.7 |
| 20260501214039 | 57 | 0 | 1.0 | 2.0 | 0.00 | 0.00 | 0.00 | 64 | 1009.7 |
| 20260501213538 | 57 | 0 | 0.0 | 3.0 | 0.00 | 0.00 | 0.00 | 62 | 1009.6 |
| 20260501213058 | 57 | 344 | 1.0 | 3.0 | 0.00 | 0.00 | 0.00 | 63 | 1009.7 |
| 20260501212543 | 58 | 0 | 0.0 | 3.0 | 0.00 | 0.00 | 0.00 | 62 | 1009.6 |
| 20260501212042 | 58 | 0 | 0.0 | 3.0 | 0.00 | 0.00 | 0.00 | 62 | 1009.6 |
| 20260501211548 | 58 | 313 | 1.0 | 5.0 | 0.00 | 0.00 | 0.00 | 62 | 1009.5 |
| 20260501211039 | 58 | 0 | 1.0 | 5.0 | 0.00 | 0.00 | 0.00 | 63 | 1009.4 |
| 20260501210539 | 58 | 22 | 1.0 | 3.0 | 0.00 | 0.00 | 0.00 | 64 | 1009.4 |
| 20260501210048 | 58 | 27 | 1.0 | 3.0 | 0.00 | 0.00 | 0.00 | 62 | 1009.4 |
| 20260501205536 | 58 | 3 | 1.0 | 3.0 | 0.00 | 0.00 | 0.00 | 63 | 1009.4 |
| 20260501205038 | 58 | 337 | 0.0 | 3.0 | 0.00 | 0.00 | 0.00 | 63 | 1009.4 |
| 20260501204551 | 58 | 337 | 1.0 | 3.0 | 0.00 | 0.00 | 0.00 | 63 | 1009.5 |
| 20260501204036 | 58 | 0 | 0.0 | 2.0 | 0.00 | 0.00 | 0.00 | 63 | 1009.5 |
| 20260501203538 | 58 | 18 | 1.0 | 2.0 | 0.00 | 0.00 | 0.00 | 62 | 1009.5 |
| 20260501203054 | 59 | 21 | 1.0 | 2.0 | 0.00 | 0.00 | 0.00 | 64 | 1009.5 |
| 20260501202536 | 59 | 18 | 0.0 | 5.0 | 0.00 | 0.00 | 0.00 | 63 | 1009.4 |
| 20260501202040 | 59 | 0 | 1.0 | 5.0 | 0.00 | 0.00 | 0.00 | 63 | 1009.6 |
| 20260501201558 | 59 | 353 | 1.0 | 3.0 | 0.00 | 0.00 | 0.00 | 63 | 1009.6 |
| 20260501201036 | 59 | 349 | 1.0 | 5.0 | 0.00 | 0.00 | 0.00 | 61 | 1009.5 |
| 20260501200535 | 59 | 14 | 1.0 | 5.0 | 0.00 | 0.00 | 0.00 | 61 | 1009.3 |
| 20260501200055 | 59 | 23 | 1.0 | 3.0 | 0.00 | 0.00 | 0.00 | 59 | 1009.4 |
| 20260501195540 | 60 | 28 | 0.0 | 3.0 | 0.00 | 0.00 | 0.00 | 61 | 1009.3 |
| 20260501195040 | 60 | 22 | 1.0 | 3.0 | 0.00 | 0.00 | 0.00 | 60 | 1009.5 |
| 20260501194609 | 60 | 31 | 0.0 | 3.0 | 0.00 | 0.00 | 0.00 | 60 | 1009.5 |
| 20260501194039 | 61 | 18 | 1.0 | 3.0 | 0.00 | 0.00 | 0.00 | 59 | 1009.4 |
| 20260501193539 | 61 | 16 | 0.0 | 3.0 | 0.00 | 0.00 | 0.00 | 58 | 1009.5 |
| 20260501193047 | 62 | 16 | 0.0 | 3.0 | 0.00 | 0.00 | 0.00 | 59 | 1009.6 |
| 20260501192539 | 63 | 24 | 0.0 | 2.0 | 0.00 | 0.00 | 0.00 | 58 | 1009.7 |
| 20260501192036 | 63 | 341 | 1.0 | 2.0 | 0.00 | 0.00 | 0.00 | 58 | 1009.8 |
| 20260501191555 | 63 | 340 | 0.0 | 3.0 | 0.00 | 0.00 | 0.00 | 61 | 1009.7 |
| 20260501191036 | 63 | 15 | 1.0 | 3.0 | 0.00 | 0.00 | 0.00 | 57 | 1009.8 |
| 20260501190536 | 63 | 18 | 1.0 | 3.0 | 0.00 | 0.00 | 0.00 | 59 | 1009.8 |
| 20260501190054 | 63 | 21 | 1.0 | 3.0 | 0.00 | 0.00 | 0.00 | 61 | 1009.7 |
| 20260501185535 | 62 | 20 | 0.0 | 3.0 | 0.00 | 0.00 | 0.00 | 64 | 1009.6 |
| 20260501185036 | 62 | 0 | 1.0 | 4.0 | 0.00 | 0.00 | 0.00 | 64 | 1009.7 |
| 20260501184554 | 62 | 344 | 1.0 | 4.0 | 0.00 | 0.00 | 0.00 | 57 | 1009.7 |
| 20260501184038 | 62 | 14 | 1.0 | 4.0 | 0.00 | 0.00 | 0.00 | 54 | 1009.7 |
| 20260501183538 | 63 | 353 | 1.0 | 3.0 | 0.00 | 0.00 | 0.00 | 54 | 1009.8 |
| 20260501183047 | 63 | 357 | 1.0 | 4.0 | 0.00 | 0.00 | 0.00 | 51 | 1009.8 |
| 20260501182539 | 62 | 357 | 1.0 | 4.0 | 0.00 | 0.00 | 0.00 | 50 | 1009.7 |
| 20260501182036 | 62 | 340 | 0.0 | 3.0 | 0.00 | 0.00 | 0.00 | 54 | 1009.7 |
| 20260501181613 | 62 | 340 | 1.0 | 3.0 | 0.00 | 0.00 | 0.00 | 51 | 1009.7 |
| 20260501181037 | 62 | 0 | 1.0 | 3.0 | 0.00 | 0.00 | 0.00 | 55 | 1009.7 |
| 20260501180539 | 62 | 2 | 1.0 | 5.0 | 0.00 | 0.00 | 0.00 | 52 | 1009.9 |
| 20260501180049 | 62 | 29 | 1.0 | 5.0 | 0.00 | 0.00 | 0.00 | 54 | 1009.9 |
| 20260501175536 | 62 | 9 | 2.0 | 5.0 | 0.00 | 0.00 | 0.00 | 54 | 1010.0 |
| 20260501175035 | 61 | 2 | 1.0 | 3.0 | 0.00 | 0.00 | 0.00 | 55 | 1009.8 |
| 20260501174553 | 61 | 80 | 1.0 | 4.0 | 0.00 | 0.00 | 0.00 | 59 | 1010.1 |
| 20260501174035 | 61 | 0 | 1.0 | 4.0 | 0.00 | 0.00 | 0.00 | 61 | 1010.1 |
| 20260501173537 | 61 | 41 | 1.0 | 4.0 | 0.00 | 0.00 | 0.00 | 59 | 1010.0 |
| 20260501173104 | 60 | 355 | 1.0 | 5.0 | 0.00 | 0.00 | 0.00 | 63 | 1010.2 |
| 20260501172539 | 59 | 0 | 1.0 | 6.0 | 0.00 | 0.00 | 0.00 | 62 | 1010.2 |
| 20260501172039 | 59 | 0 | 1.0 | 6.0 | 0.00 | 0.00 | 0.00 | 58 | 1010.2 |
| 20260501171549 | 59 | 348 | 1.0 | 4.0 | 0.00 | 0.00 | 0.00 | 61 | 1010.3 |
| 20260501171041 | 60 | 348 | 1.0 | 4.0 | 0.00 | 0.00 | 0.00 | 58 | 1010.2 |
| 20260501170536 | 60 | 14 | 1.0 | 8.0 | 0.00 | 0.00 | 0.00 | 60 | 1010.4 |
| 20260501170050 | 60 | 352 | 2.0 | 8.0 | 0.00 | 0.00 | 0.00 | 56 | 1010.4 |
| 20260501165536 | 61 | 344 | 2.0 | 8.0 | 0.00 | 0.00 | 0.00 | 55 | 1010.2 |